RH
45 32 40 49 68 40 41 43 34 22 14 22 26 28 36 38 38 39 46 47 46 52 59 60 72 84 85 87 87 87 86 77 78 70 71 71 74 68 74 88 92 90 90 91
45 40 40 57 71 62 36 29 23 21 24 16 34 34 32 38 39 52 48 47 47 47 49 57 67 81 86 88 89 85 85 89 67 67 69 69 67 74 80 78 86 91 92 91
46 34 58 84 62 53 56 54 33 39 26 35 22 67 41 44 55 57 47 46 46 45 48 47 58 75 89 88 87 85 84 84 87 76 79 77 66 67 71 80 74 85 89 94
52 47 90 61 32 49 48 40 45 52 64 62 55 71 63 62 61 55 49 46 46 44 44 44 45 52 66 83 87 88 88 85 86 88 89 83 79 70 70 76 81 84 83 83
57 51 48 52 37 36 44 49 52 46 50 68 66 57 69 56 54 50 48 46 45 42 42 43 45 47 51 61 82 87 88 90 89 87 89 89 93 81 71 71 80 85 84 88
53 51 64 48 35 29 35 75 64 73 70 74 66 86 91 55 47 45 43 43 43 42 42 45 45 45 49 58 68 87 89 90 91 89 88 90 92 94 96 80 75 78 89 97
53 58 36 41 40 41 80 98 77 96 79 84 92 95 80 58 49 44 44 46 42 42 43 45 45 45 48 54 66 73 86 80 82 87 87 90 94 96 98 99 99 99 98 98
60 56 64 59 51 91 92 76 90 91 82 76 65 68 72 65 54 48 46 44 41 43 45 44 43 46 47 57 59 66 76 86 82 86 86 85 93 96 99 99 98 99 98 98
74 70 80 80 93 80 76 90 95 92 72 71 75 68 62 56 50 49 46 43 42 43 46 46 46 48 52 60 59 67 74 78 87 83 88 88 94 96 98 99 99 100 98 98
67 70 88 92 93 89 89 91 92 75 64 62 60 54 53 54 52 48 49 47 46 47 46 50 48 49 52 59 62 69 77 80 83 94 90 92 92 94 96 97 97 96 95 96
67 60 69 68 96 97 89 94 94 93 54 54 55 57 52 55 56 53 52 49 51 54 54 51 51 54 57 61 65 72 80 83 86 87 90 93 95 96 96 98 96 95 96 95
94 99 99 87 95 98 94 96 97 94 71 53 52 57 58 66 69 66 64 61 64 63 61 59 57 63 66 69 71 75 80 84 88 85 86 86 89 94 94 92 91 90 89 91
99 100 100 99 95 93 99 100 100 100 100 95 60 60 68 80 85 84 82 81 81 84 76 75 75 80 80 82 79 86 88 87 86 86 86 88 89 88 93 94 90 88 87 85
87 95 100 94 98 100 98 98 96 85 70 87 80 60 62 79 88 89 91 90 86 86 87 86 86 90 90 95 96 97 97 91 91 90 90 91 92 93 91 90 93 96 91 90
60 54 70 72 66 75 71 70 72 63 63 63 59 59 57 62 71 76 83 90 87 85 87 86 87 91 92 90 90 94 92 91 91 88 88 87 87 87 85 86 89 91 92 92
53 53 47 50 48 49 57 68 74 65 62 65 74 63 63 61 62 66 70 75 85 92 92 89 89 90 90 94 92 90 89 89 84 81 83 85 85 88 85 84 83 84 86 90
58 59 55 54 52 52 52 59 68 74 69 67 69 77 65 68 75 79 83 83 85 91 92 90 91 90 88 95 90 84 82 80 80 76 76 78 79 80 81 84 85 84 88 90
46 48 48 52 54 56 57 61 65 70 77 79 80 84 87 86 88 87 85 81 86 87 89 90 90 85 83 84 74 74 77 76 78 81 78 81 78 76 79 80 80 81 84 82
44 48 51 53 60 62 68 76 81 82 86 86 86 89 87 87 84 84 82 83 84 83 88 81 84 77 75 84 74 75 77 77 74 74 77 80 83 80 84 84 81 78 72 73
49 50 56 63 68 75 83 82 82 82 85 85 85 85 85 85 84 84 81 89 87 82 73 74 76 80 81 80 80 79 83 83 81 86 87 85 86 86 82 74 74 77 80 79
78 70 75 75 79 80 83 82 82 83 85 86 86 87 87 84 85 84 84 76 81 76 74 76 73 72 70 73 80 91 90 91 91 89 85 83 81 76 78 78 78 79 80 79
80 82 83 82 80 83 82 81 79 82 83 83 83 82 87 85 86 84 84 88 72 79 72 72 74 81 77 84 80 90 86 85 85 84 82 79 79 79 79 78 79 79 79 79
79 77 80 82 83 82 80 81 83 82 84 84 85 86 79 81 78 79 83 76 72 79 72 80 82 86 90 89 89 89 87 82 78 78 78 79 79 78 77 77 78 78 78 77
78 77 79 76 73 73 80 80 80 79 80 85 82 81 82 89 86 79 76 76 77 80 85 85 86 86 87 89 90 88 84 81 80 80 77 74 81 78 77 77 77 79 77 77
76 76 77 78 73 66 72 71 80 82 80 78 78 75 75 71 84 84 88 79 78 77 83 84 86 87 89 89 89 89 86 82 79 78 78 78 78 78 77 76 76 77 77 75
76 66 68 76 70 64 62 62 67 70 73 82 82 84 81 78 79 78 78 76 75 76 83 87 88 87 87 86 85 80 76 72 76 75 76 76 76 76 78 77 76 75 77 78
70 78 63 63 62 63 66 68 75 76 76 85 80 78 75 80 80 79 80 82 81 83 85 86 87 86 86 87 84 82 83 82 79 77 78 77 77 78 77 77 78 78 79 79
Wind_Speed
21 25 19 18 13 13 12 15 18 18 18 14 15 15 15 14 12 10 11 9 10 11 10 10 11 10 9 9 9 10 9 6 10 10 10 10 8 9 9 10 9 11 11 9
22 14 17 19 8 14 15 18 20 15 21 17 6 20 18 17 12 11 10 11 10 10 10 9 9 9 9 10 9 10 11 12 10 9 8 8 8 8 8 10 11 10 11 12
16 16 19 6 13 5 7 11 13 16 12 17 10 9 9 10 13 11 11 9 9 9 9 9 9 7 8 10 10 10 12 12 15 5 6 4 8 9 9 9 10 12 13 11
13 14 3 8 12 8 11 4 7 7 20 11 18 21 18 16 12 13 9 9 9 9 9 10 9 8 8 9 9 9 11 12 13 13 10 5 7 8 10 7 7 6 7 11
7 12 2 4 14 17 15 11 14 13 5 10 13 18 19 15 10 10 9 9 9 9 9 9 10 10 8 10 10 9 11 12 12 12 11 10 8 7 8 8 7 6 5 6
10 8 5 12 20 18 19 2 22 19 8 9 9 7 8 9 10 10 11 9 9 9 10 11 12 10 10 11 11 11 11 11 11 10 10 9 9 8 6 6 8 6 5 7
7 4 5 19 20 23 4 12 16 12 11 13 13 8 6 6 10 10 10 10 9 10 10 11 11 10 10 11 12 11 9 5 5 9 8 9 9 7 6 1 8 9 9 8
7 4 3 24 12 11 13 20 14 2 10 12 15 13 10 10 9 9 10 10 11 9 10 12 12 11 10 12 12 12 12 12 13 11 7 7 8 6 6 6 10 8 9 8
7 12 15 16 15 16 14 15 13 14 7 12 12 10 9 8 7 10 11 11 10 10 11 11 12 12 11 11 11 10 10 11 11 11 11 10 9 9 6 7 6 7 7 8
15 6 12 14 15 16 13 14 14 16 12 11 12 9 10 9 9 10 9 11 11 11 12 12 12 12 12 11 10 10 10 11 11 10 11 11 8 8 6 6 6 7 8 8
11 10 12 15 14 15 13 13 12 14 15 12 12 12 10 10 10 9 11 11 11 11 11 12 12 13 13 12 10 9 9 8 8 8 10 11 13 10 8 10 7 7 7 8
5 9 8 8 11 14 12 11 11 11 11 13 13 13 13 12 12 12 12 12 12 12 12 12 12 12 13 12 12 9 9 7 7 6 7 8 9 12 26 22 25 24 21 14
3 9 3 10 7 13 8 9 9 8 10 9 13 12 13 10 9 10 10 11 11 11 11 10 10 11 11 11 11 10 8 8 7 8 7 6 8 10 12 19 28 27 27 26
4 7 2 8 7 10 11 5 3 5 8 8 9 10 9 9 9 9 10 9 9 9 10 10 10 11 10 9 7 8 8 11 7 8 8 8 8 9 9 10 12 12 21 20
5 4 3 6 5 7 9 11 7 9 9 10 10 10 10 9 9 9 9 6 7 9 10 10 10 10 9 8 9 9 7 7 8 8 8 9 9 9 10 11 11 11 10 14
7 3 8 8 10 10 9 10 10 10 9 9 9 9 9 9 9 10 10 10 10 10 9 9 10 9 9 7 7 7 8 9 8 7 8 8 8 8 9 9 10 10 9 8
6 5 8 7 9 10 9 9 8 9 10 10 9 9 9 7 8 9 9 9 9 9 9 10 8 8 8 8 7 6 7 8 9 8 9 9 8 9 9 9 10 9 9 10
6 6 6 7 8 8 8 10 10 11 9 9 7 7 7 8 8 8 8 7 5 10 10 9 9 7 8 9 7 7 6 7 7 8 8 9 9 9 9 10 10 9 9 10
8 7 7 8 9 8 8 8 8 7 9 8 7 7 7 7 7 7 7 9 9 10 10 9 9 9 8 10 6 6 7 8 8 8 8 9 9 8 9 9 9 9 9 9
7 8 8 9 10 10 8 9 9 8 8 8 5 6 7 7 7 6 5 9 9 7 8 10 7 8 7 8 6 6 6 7 8 8 7 8 9 9 9 10 9 9 9 9
7 7 7 7 7 8 8 8 8 9 8 9 8 7 6 7 7 9 7 6 9 9 8 9 9 6 5 5 5 5 6 7 7 7 8 8 8 8 8 9 8 8 8 8
5 5 5 6 5 6 6 7 7 6 7 7 6 5 3 5 4 7 8 9 6 10 7 7 7 9 6 5 5 6 7 7 7 7 7 7 7 8 8 8 8 8 8 8
4 5 5 4 5 5 5 5 5 6 6 7 7 7 6 6 6 6 6 9 7 9 7 7 8 8 7 5 6 7 7 8 7 7 7 7 7 7 7 7 7 7 7 7
4 4 5 4 3 4 5 6 5 5 4 5 5 6 7 4 5 5 5 6 7 8 8 7 7 9 7 5 6 7 7 7 8 7 8 9 8 8 7 7 7 7 7 7
2 0 1 4 2 4 3 3 3 2 3 5 5 5 7 7 7 5 5 5 7 6 6 9 10 10 6 6 7 7 7 7 7 7 7 7 7 7 7 7 6 7 6 6
5 5 4 4 4 4 4 4 4 4 4 4 5 5 5 4 4 4 4 5 6 7 7 6 6 6 6 7 7 7 7 7 7 7 7 7 7 7 7 7 6 6 6 6
2 3 1 2 4 4 5 5 4 4 4 4 4 4 4 4 4 4 5 5 5 5 6 6 6 7 6 6 6 7 7 7 7 6 6 6 6 6 6 6 5 5 5 5
Wind_Direction
300 303 298 306 274 248 264 236 261 247 230 190 171 175 151 147 170 130 108 94 80 78 72 57 33 15 23 25 10 357 346 201 208 215 212 208 167 179 172 170 173 177 172 175
301 301 337 311 174 250 261 253 259 256 276 313 158 273 170 160 157 128 117 101 82 65 58 62 46 18 8 16 15 11 9 351 244 212 223 207 194 180 167 179 175 173 178 183
299 327 318 248 350 297 226 268 260 263 288 323 180 34 167 147 112 108 94 82 72 61 47 37 50 47 23 7 10 26 15 9 348 284 203 233 220 199 195 188 188 183 176 178
290 306 285 25 26 12 351 252 215 261 270 307 70 95 73 67 69 70 76 71 62 51 45 33 30 38 51 31 16 23 26 11 360 342 360 317 221 228 205 197 183 198 181 178
299 319 254 35 1 351 341 328 352 320 346 115 102 93 61 63 61 66 61 66 62 51 39 34 23 34 22 39 26 20 24 13 356 338 352 349 342 225 224 200 194 183 181 175
302 309 315 18 347 332 316 278 352 331 283 160 173 90 75 53 55 63 52 45 47 49 40 32 19 16 26 23 25 12 13 7 351 335 351 346 333 321 315 228 199 183 97 50
298 299 304 6 350 320 338 349 339 335 67 73 80 79 100 59 54 56 53 38 46 45 40 31 22 10 25 18 18 3 357 19 355 360 351 347 330 316 299 95 87 82 84 61
330 293 321 9 4 15 340 321 21 82 70 77 95 98 73 53 47 38 45 38 32 48 39 28 24 12 25 20 11 1 358 357 10 8 3 2 1 356 1 85 93 88 89 69
323 319 18 21 352 359 360 359 2 311 97 88 86 82 83 67 64 45 35 35 28 33 41 33 25 18 22 15 8 9 14 20 11 11 13 8 16 14 25 47 83 96 89 84
331 11 18 22 2 354 8 12 12 346 56 72 88 84 71 66 46 40 41 35 30 32 34 31 24 22 18 17 17 25 22 22 25 19 24 20 26 26 35 45 70 85 93 90
308 0 332 29 7 349 3 13 20 15 30 52 66 55 59 56 45 38 33 34 33 32 32 30 25 22 18 12 19 42 42 39 39 30 34 43 46 31 40 38 61 96 95 98
322 359 327 358 6 358 6 20 20 24 28 39 52 50 51 43 32 30 28 28 31 29 32 28 29 29 19 15 20 38 47 41 37 46 48 50 61 64 59 70 76 81 85 93
323 313 292 352 12 1 352 11 27 35 25 25 34 50 52 53 42 43 40 34 32 30 29 33 35 34 21 21 30 42 58 60 55 55 59 68 73 76 82 71 75 82 89 96
358 330 306 15 343 347 343 350 10 36 60 46 30 42 57 75 58 43 38 39 36 33 38 35 38 34 24 19 38 48 59 60 68 71 67 61 65 70 73 79 81 78 77 90
347 18 327 304 319 5 359 358 13 33 30 28 38 35 37 45 60 54 53 33 64 43 42 36 34 28 15 36 43 51 65 69 73 73 72 79 79 82 84 88 87 91 91 82
320 351 350 349 348 357 11 11 8 13 21 42 27 33 39 32 48 54 48 44 42 38 33 38 35 18 10 29 60 70 72 70 82 89 91 90 84 86 87 85 86 83 84 93
353 0 354 353 351 352 5 9 1 6 11 21 27 20 20 34 52 44 45 45 51 46 40 27 37 18 11 15 58 68 71 68 72 76 78 81 83 84 83 80 79 72 64 66
12 28 16 5 349 348 359 5 3 3 4 9 19 35 45 43 39 33 31 31 68 65 39 33 13 41 28 23 52 69 77 85 85 84 84 81 82 84 89 89 89 91 87 79
25 20 16 25 10 3 12 4 351 360 3 14 25 47 48 43 34 27 25 29 27 37 29 25 29 41 42 21 51 71 82 88 87 89 92 96 88 86 90 97 98 96 95 88
30 27 20 23 23 16 8 10 350 24 8 3 29 44 52 40 25 24 54 60 37 20 18 14 29 44 46 31 43 74 85 93 93 90 86 85 86 86 88 89 95 94 92 92
36 27 27 23 26 22 11 7 18 20 30 24 33 40 39 37 33 5 10 48 30 6 16 36 28 21 38 33 65 76 86 92 93 93 94 100 102 98 96 94 94 96 98 98
43 44 37 19 32 40 27 22 28 28 28 34 34 16 358 63 88 83 55 16 28 5 28 33 31 20 25 35 70 77 82 88 92 94 95 98 101 101 99 99 98 99 99 99
34 35 49 33 24 37 49 38 46 32 40 36 25 21 35 37 17 12 41 22 22 17 41 38 23 28 26 51 65 72 76 79 82 84 89 93 94 97 102 102 100 100 103 104
50 31 29 25 351 18 29 42 20 52 26 78 62 14 2 24 80 46 65 48 54 58 44 33 32 42 49 59 68 73 77 80 82 84 89 88 90 96 106 110 101 93 99 91
36 207 85 322 319 55 40 32 193 126 84 62 49 56 39 37 38 34 33 53 31 56 66 51 42 44 54 59 64 67 70 80 90 95 95 98 101 104 103 105 109 103 105 103
12 24 42 48 6 4 15 8 34 32 4 64 65 43 49 45 55 61 62 47 47 55 56 47 45 53 56 66 76 83 87 87 83 83 91 92 95 96 96 106 114 108 106 100
98 309 9 63 33 30 19 18 16 40 34 33 57 40 46 59 58 53 50 56 57 60 62 60 54 49 61 67 73 76 73 71 68 86 89 96 100 104 108 108 103 100 105 117